This is the latest recevied weather packets stored in our database for station/object SP1BMW-13. If no packets are shown the sender has not sent any weather packets the latest 1 day(s).
| Time | Temp. | Humidity | Pressure | Rain* | Wind** | Luminosity | Snow |
|---|---|---|---|---|---|---|---|
| 1778075512 | 10° C | 92% | 1006.4 hPa | 0 mm | 1.34 m/s, 343° | 206 W/m² | - |
| 1778075392 | 10° C | 92% | 1006.4 hPa | 0 mm | 1.34 m/s, 30° | 198 W/m² | - |
| 1778075332 | 10° C | 91% | 1006.4 hPa | 0 mm | 0.89 m/s, 28° | 204 W/m² | - |
| 1778075272 | 10° C | 91% | 1006.4 hPa | 0 mm | 0.89 m/s, 358° | 207 W/m² | - |
| 1778075212 | 10° C | 91% | 1006.3 hPa | 0 mm | 1.79 m/s, 13° | 191 W/m² | - |
| 1778075092 | 10° C | 91% | 1006.4 hPa | 0 mm | 0.89 m/s, 333° | 202 W/m² | - |
| 1778075032 | 10° C | 92% | 1006.5 hPa | 0 mm | 2.68 m/s, 334° | 202 W/m² | - |
| 1778074852 | 10° C | 92% | 1006.4 hPa | 0 mm | 0.89 m/s, 274° | 190 W/m² | - |
| 1778074792 | 10° C | 92% | 1006.4 hPa | 0.25 mm | 1.79 m/s, 15° | 199 W/m² | - |
| 1778074552 | 10° C | 93% | 1006.2 hPa | 0.25 mm | 0.89 m/s, 327° | 222 W/m² | - |
| 1778074492 | 10° C | 93% | 1006.2 hPa | 0.25 mm | 1.34 m/s, 341° | 199 W/m² | - |
| 1778074431 | 9.44° C | 93% | 1006.2 hPa | 0.25 mm | 0.45 m/s, 138° | 196 W/m² | - |
| 1778074372 | 9.44° C | 93% | 1006.2 hPa | 0.25 mm | 0 m/s | 213 W/m² | - |
| 1778074312 | 9.44° C | 93% | 1006.4 hPa | 0.25 mm | 0 m/s | 221 W/m² | - |
| 1778074192 | 9.44° C | 93% | 1006.2 hPa | 0.25 mm | 1.34 m/s, 304° | 195 W/m² | - |
| 1778074012 | 9.44° C | 93% | 1006.3 hPa | 0.25 mm | 1.79 m/s, 307° | 156 W/m² | - |
| 1778073952 | 9.44° C | 93% | 1006.4 hPa | 0.25 mm | 0.89 m/s, 273° | 149 W/m² | - |
| 1778073832 | 9.44° C | 93% | 1006.4 hPa | 0.25 mm | 0.89 m/s, 284° | 136 W/m² | - |
| 1778073772 | 9.44° C | 93% | 1006.3 hPa | 0.25 mm | 0.89 m/s, 19° | 137 W/m² | - |
| 1778073532 | 9.44° C | 93% | 1006.2 hPa | 0.25 mm | 1.79 m/s, 27° | 174 W/m² | - |
| 1778073352 | 9.44° C | 93% | 1006.4 hPa | 0.25 mm | 0.45 m/s, 278° | 156 W/m² | - |
| 1778073232 | 9.44° C | 93% | 1006.5 hPa | 0.25 mm | 0.89 m/s, 351° | 145 W/m² | - |
| 1778072932 | 9.44° C | 93% | 1006.4 hPa | 0.51 mm | 0.89 m/s, 285° | 97 W/m² | - |
| 1778072872 | 9.44° C | 93% | 1006.2 hPa | 0.51 mm | 1.34 m/s, 305° | 95 W/m² | - |
| 1778072692 | 9.44° C | 93% | 1006.3 hPa | 0.51 mm | 1.34 m/s, 306° | 89 W/m² | - |
* Rain latest hour (hover to see other rain measurements)
** Current wind speed in m/s (hover to see current wind gust speed)